PWSweather.com
Personal Weather Stations
Station Observations
ANTHEMNP
Anthem North Parkside, Anthem, AZ 85086

Anthem North ParksideAnthem, AZ 85086

Lat: 33.876464, Lon: -112.13861199999997

Elevation: 1930

Station Type: Davis Vantage Vue with Pro 2 console

http://www.azjerry.com/ANPW/wxindex.php

Latest ConditionsUpdated 5:40:43 PM MST Saturday, Oct 20, 2018
Currently Today's Max Today's Min Today's Average
Temperature 83.6°F28.7°C 89.5°F31.9°C 72.7°F22.6°C 86.4°F30.2°C
Dew Point 51.5°F10.8°C 54.9°F12.7°C 40.3°F4.6°C 52.1°F11.2°C
Winds 1.2 mph NE1.9 kmh NE 8.1 mph -13.0 kmh - - 2.7 mph 4.3 kmh
Wind Gusts 2.3 mph3.7 kmh 11.5 mph18.5 kmh - -
Humidity 33% 36% 29% 31%
Pressure 29.94 in1013.9 mb 30.04 in1017.3 mb 29.94 in1013.9 mb -
Hour Temp Dew Point Humidity Winds Wind Gusts Pressure Precip Precip Rate Daily Precip Total
05:40 PM 83.6°F28.7°C 51.5°F10.8°C 33% 1.2 mph NE1.9 kmh NE 2.3 mph3.7 kmh 29.94 in1013.9 mb - 0.00 in0.0 mm 0.00 in0.0 mm
05:35 PM 83.9°F28.8°C 51.7°F10.9°C 33% 1.2 mph NNE1.9 kmh NNE 2.3 mph3.7 kmh 29.94 in1013.9 mb - 0.00 in0.0 mm 0.00 in0.0 mm
05:30 PM 84.3°F29.1°C 52.0°F11.1°C 33% Calm Calm 2.3 mph3.7 kmh 29.94 in1013.9 mb - 0.00 in0.0 mm 0.00 in0.0 mm
05:25 PM 84.8°F29.3°C 51.7°F10.9°C 32% 1.2 mph N1.9 kmh N 1.2 mph1.9 kmh 29.94 in1013.9 mb - 0.00 in0.0 mm 0.00 in0.0 mm
05:20 PM 85.4°F29.7°C 52.2°F11.2°C 32% Calm Calm 2.3 mph3.7 kmh 29.94 in1013.9 mb - 0.00 in0.0 mm 0.00 in0.0 mm
05:15 PM 85.6°F29.8°C 51.5°F10.8°C 31% 1.2 mph ESE1.9 kmh ESE 2.3 mph3.7 kmh 29.94 in1013.9 mb - 0.00 in0.0 mm 0.00 in0.0 mm
05:10 PM 85.9°F29.9°C 51.7°F10.9°C 31% 1.2 mph NE1.9 kmh NE 1.2 mph1.9 kmh 29.95 in1014.2 mb - 0.00 in0.0 mm 0.00 in0.0 mm
05:00 PM 86.6°F30.3°C 52.4°F11.3°C 31% 2.3 mph E3.7 kmh E 3.5 mph5.6 kmh 29.95 in1014.2 mb - 0.00 in0.0 mm 0.00 in0.0 mm
04:55 PM 86.9°F30.5°C 51.7°F10.9°C 30% 2.3 mph E3.7 kmh E 3.5 mph5.6 kmh 29.95 in1014.2 mb - 0.00 in0.0 mm 0.00 in0.0 mm
04:50 PM 87.0°F30.6°C 52.7°F11.5°C 31% 1.2 mph ENE1.9 kmh ENE 3.5 mph5.6 kmh 29.95 in1014.2 mb - 0.00 in0.0 mm 0.00 in0.0 mm
04:45 PM 87.0°F30.6°C 52.7°F11.5°C 31% 1.2 mph SE1.9 kmh SE 1.2 mph1.9 kmh 29.95 in1014.2 mb - 0.00 in0.0 mm 0.00 in0.0 mm
04:40 PM 87.0°F30.6°C 51.8°F11.0°C 30% 2.3 mph WSW3.7 kmh WSW 3.5 mph5.6 kmh 29.95 in1014.2 mb - 0.00 in0.0 mm 0.00 in0.0 mm
04:35 PM 87.1°F30.6°C 51.9°F11.1°C 30% 2.3 mph ENE3.7 kmh ENE 4.6 mph7.4 kmh 29.95 in1014.2 mb - 0.00 in0.0 mm 0.00 in0.0 mm
04:30 PM 87.3°F30.7°C 52.0°F11.1°C 30% 1.2 mph NE1.9 kmh NE 4.6 mph7.4 kmh 29.95 in1014.2 mb - 0.00 in0.0 mm 0.00 in0.0 mm
04:25 PM 87.3°F30.7°C 53.0°F11.7°C 31% 2.3 mph SE3.7 kmh SE 3.5 mph5.6 kmh 29.95 in1014.2 mb - 0.00 in0.0 mm 0.00 in0.0 mm
04:20 PM 87.2°F30.7°C 52.9°F11.6°C 31% 3.5 mph SE5.6 kmh SE 6.9 mph11.1 kmh 29.95 in1014.2 mb - 0.00 in0.0 mm 0.00 in0.0 mm
04:15 PM 87.0°F30.6°C 52.7°F11.5°C 31% 2.3 mph SE3.7 kmh SE 5.8 mph9.3 kmh 29.95 in1014.2 mb - 0.00 in0.0 mm 0.00 in0.0 mm
04:10 PM 87.3°F30.7°C 52.1°F11.2°C 30% 2.3 mph SE3.7 kmh SE 3.5 mph5.6 kmh 29.95 in1014.2 mb - 0.00 in0.0 mm 0.00 in0.0 mm
04:00 PM 88.6°F31.4°C 53.2°F11.8°C 30% 1.2 mph NE1.9 kmh NE 3.5 mph5.6 kmh 29.95 in1014.2 mb - 0.00 in0.0 mm 0.00 in0.0 mm
03:55 PM 88.7°F31.5°C 53.3°F11.8°C 30% 2.3 mph SE3.7 kmh SE 3.5 mph5.6 kmh 29.95 in1014.2 mb - 0.00 in0.0 mm 0.00 in0.0 mm
03:50 PM 88.3°F31.3°C 52.9°F11.6°C 30% 2.3 mph ESE3.7 kmh ESE 3.5 mph5.6 kmh 29.95 in1014.2 mb - 0.00 in0.0 mm 0.00 in0.0 mm
03:45 PM 88.1°F31.2°C 52.8°F11.6°C 30% 2.3 mph NE3.7 kmh NE 3.5 mph5.6 kmh 29.96 in1014.6 mb - 0.00 in0.0 mm 0.00 in0.0 mm
03:40 PM 88.7°F31.5°C 53.3°F11.8°C 30% 2.3 mph ENE3.7 kmh ENE 3.5 mph5.6 kmh 29.96 in1014.6 mb - 0.00 in0.0 mm 0.00 in0.0 mm
03:35 PM 89.4°F31.9°C 53.0°F11.7°C 29% 3.5 mph SE5.6 kmh SE 5.8 mph9.3 kmh 29.96 in1014.6 mb - 0.00 in0.0 mm 0.00 in0.0 mm
03:30 PM 89.5°F31.9°C 54.9°F12.7°C 31% 3.5 mph SE5.6 kmh SE 11.5 mph18.5 kmh 29.96 in1014.6 mb - 0.00 in0.0 mm 0.00 in0.0 mm
03:25 PM 89.0°F31.7°C 54.4°F12.4°C 31% 2.3 mph NNE3.7 kmh NNE 3.5 mph5.6 kmh 29.96 in1014.6 mb - 0.00 in0.0 mm 0.00 in0.0 mm
03:20 PM 88.7°F31.5°C 53.3°F11.8°C 30% 5.8 mph SE9.3 kmh SE 6.9 mph11.1 kmh 29.96 in1014.6 mb - 0.00 in0.0 mm 0.00 in0.0 mm
03:15 PM 88.5°F31.4°C 54.0°F12.2°C 31% 5.8 mph SSE9.3 kmh SSE 9.2 mph14.8 kmh 29.96 in1014.6 mb - 0.00 in0.0 mm 0.00 in0.0 mm
03:10 PM 88.7°F31.5°C 54.1°F12.3°C 31% 5.8 mph S9.3 kmh S 11.5 mph18.5 kmh 29.96 in1014.6 mb - 0.00 in0.0 mm 0.00 in0.0 mm
03:00 PM 88.4°F31.3°C 53.9°F12.2°C 31% 4.6 mph SSE7.4 kmh SSE 9.2 mph14.8 kmh 29.97 in1014.9 mb - 0.00 in0.0 mm 0.00 in0.0 mm
02:55 PM 88.4°F31.3°C 54.0°F12.2°C 31% 8.1 mph SSE13.0 kmh SSE 11.5 mph18.5 kmh 29.96 in1014.6 mb - 0.00 in0.0 mm 0.00 in0.0 mm
02:50 PM 72.7°F22.6°C 40.3°F4.6°C 31% 5.8 mph SE9.3 kmh SE 10.4 mph16.7 kmh 29.97 in1014.9 mb - 0.00 in0.0 mm 0.00 in0.0 mm
02:45 PM 72.7°F22.6°C 44.2°F6.8°C 36% 3.5 mph NNE5.6 kmh NNE 5.8 mph9.3 kmh 30.04 in1017.3 mb - 0.00 in0.0 mm 0.00 in0.0 mm